When you browse on this site, cookies collect data to enhance your experience and personalize the content and advertising you see.
Visit our Privacy Policy to learn more. By continuing to use the site, you agree to this use of cookies and data.
  • In Lithuania
  • List of Countries
  • For 7 days
  • Water Temperature
  • Satellite Maps
  • Weather Map
  • Weather Widgets
  • user-avatar
    Login

    Hourly Weather Novospasskoe

    Today, 23 July, Tuesday

    Time Temperature Precipitation Wind Pressure Humidity
    00:00 +18°C° 0 mm 2 mps 743 mmHg 81%
    01:00 +18°C° 0.1 mm 2 mps 742 mmHg 84%
    02:00 +18°C° 0.1 mm 2 mps 742 mmHg 86%
    03:00 +19°C° 0 mm 1 mps 742 mmHg 93%
    04:00 +18°C° 1.8 mm 2 mps 742 mmHg 94%
    05:00 +18°C° 1.8 mm 3 mps 741 mmHg 94%
    06:00 +18°C° 1.8 mm 4 mps 741 mmHg 94%
    07:00 +17°C° 0.8 mm 5 mps 741 mmHg 92%
    08:00 +19°C° 0.8 mm 5 mps 741 mmHg 90%
    09:00 +20°C° 0.8 mm 5 mps 741 mmHg 88%
    10:00 +20°C° 1 mm 6 mps 741 mmHg 87%
    11:00 +21°C° 1 mm 6 mps 741 mmHg 86%
    12:00 +21°C° 1 mm 6 mps 741 mmHg 85%
    13:00 +22°C° 0.8 mm 5 mps 741 mmHg 82%
    14:00 +22°C° 0.8 mm 5 mps 740 mmHg 79%
    15:00 +23°C° 0.8 mm 4 mps 740 mmHg 76%
    16:00 +23°C° 0.2 mm 4 mps 740 mmHg 78%
    17:00 +22°C° 0.2 mm 4 mps 740 mmHg 80%
    18:00 +22°C° 0.2 mm 3 mps 740 mmHg 81%
    19:00 +21°C° 0.1 mm 3 mps 740 mmHg 85%
    20:00 +19°C° 0.1 mm 3 mps 740 mmHg 89%
    21:00 +18°C° 0.1 mm 2 mps 740 mmHg 93%
    22:00 +17°C° 0 mm 2 mps 740 mmHg 93%
    23:00 +17°C° 0 mm 2 mps 740 mmHg 93%

    Tomorrow, 24 July, Wednesday

    Time Temperature Precipitation Wind Pressure Humidity
    00:00 +16°C° 0 mm 2 mps 740 mmHg 93%
    01:00 +16°C° 0 mm 1 mps 740 mmHg 94%
    02:00 +16°C° 0 mm 1 mps 740 mmHg 94%
    03:00 +16°C° 0 mm 1 mps 740 mmHg 94%
    04:00 +16°C° 0 mm 1 mps 740 mmHg 94%
    05:00 +16°C° 0 mm 1 mps 740 mmHg 94%
    06:00 +18°C° 0 mm 1 mps 740 mmHg 94%
    07:00 +19°C° 0.6 mm 1 mps 740 mmHg 91%
    08:00 +20°C° 0.6 mm 1 mps 740 mmHg 88%
    09:00 +21°C° 0.6 mm 1 mps 740 mmHg 85%
    10:00 +21°C° 0.8 mm 1 mps 740 mmHg 82%
    11:00 +21°C° 0.8 mm 1 mps 740 mmHg 79%
    12:00 +22°C° 0.8 mm 1 mps 741 mmHg 77%
    13:00 +22°C° 0.4 mm 1 mps 741 mmHg 78%
    14:00 +21°C° 0.4 mm 2 mps 740 mmHg 79%
    15:00 +20°C° 0.4 mm 2 mps 740 mmHg 80%
    16:00 +20°C° 0.1 mm 2 mps 740 mmHg 82%
    17:00 +20°C° 0.1 mm 2 mps 740 mmHg 83%
    18:00 +20°C° 0.1 mm 2 mps 740 mmHg 84%
    19:00 +19°C° 0.1 mm 2 mps 740 mmHg 86%
    20:00 +18°C° 0.1 mm 2 mps 740 mmHg 87%
    21:00 +17°C° 0.1 mm 2 mps 740 mmHg 89%
    22:00 +18°C° 0.1 mm 1 mps 740 mmHg 89%
    23:00 +18°C° 0.1 mm 1 mps 741 mmHg 88%

    Day after tomorrow, 25 July, Thursday

    Time Temperature Precipitation Wind Pressure Humidity
    00:00 +16°C° 0.1 mm 0 mps 741 mmHg 88%
    01:00 +16°C° 0 mm 1 mps 741 mmHg 89%
    02:00 +16°C° 0 mm 1 mps 741 mmHg 89%
    03:00 +16°C° 0 mm 1 mps 741 mmHg 90%
    04:00 +16°C° 0 mm 1 mps 741 mmHg 90%
    05:00 +15°C° 0 mm 0 mps 741 mmHg 90%
    06:00 +15°C° 0 mm 0 mps 741 mmHg 90%
    07:00 +18°C° 0 mm 1 mps 741 mmHg 86%
    08:00 +19°C° 0 mm 1 mps 741 mmHg 82%
    09:00 +19°C° 0 mm 2 mps 741 mmHg 78%
    10:00 +20°C° 0.3 mm 2 mps 741 mmHg 76%
    11:00 +21°C° 0.3 mm 2 mps 742 mmHg 73%
    12:00 +23°C° 0.3 mm 2 mps 742 mmHg 70%
    13:00 +23°C° 0.6 mm 2 mps 741 mmHg 71%
    14:00 +24°C° 0.6 mm 2 mps 741 mmHg 72%
    15:00 +24°C° 0.6 mm 2 mps 741 mmHg 72%
    16:00 +23°C° 0.9 mm 2 mps 741 mmHg 76%
    17:00 +22°C° 0.9 mm 3 mps 741 mmHg 79%
    18:00 +21°C° 0.9 mm 3 mps 741 mmHg 83%
    19:00 +21°C° 0.5 mm 4 mps 741 mmHg 86%
    20:00 +20°C° 0.5 mm 4 mps 741 mmHg 90%
    21:00 +19°C° 0.5 mm 4 mps 741 mmHg 93%
    22:00 +18°C° 0.1 mm 4 mps 741 mmHg 94%
    23:00 +18°C° 0.1 mm 4 mps 742 mmHg 94%

    26 July, Friday

    Time Temperature Precipitation Wind Pressure Humidity
    00:00 +17°C° 0.1 mm 4 mps 742 mmHg 95%
    01:00 +17°C° 0.3 mm 4 mps 742 mmHg 95%
    02:00 +17°C° 0.3 mm 5 mps 742 mmHg 95%
    03:00 +17°C° 0.3 mm 6 mps 742 mmHg 95%
    04:00 +17°C° 1.1 mm 5 mps 742 mmHg 95%
    05:00 +17°C° 1.1 mm 5 mps 742 mmHg 96%
    06:00 +17°C° 1.1 mm 4 mps 742 mmHg 96%
    07:00 +18°C° 0.4 mm 4 mps 742 mmHg 94%
    08:00 +19°C° 0.4 mm 5 mps 742 mmHg 92%
    09:00 +20°C° 0.4 mm 5 mps 742 mmHg 90%
    10:00 +21°C° 0.3 mm 5 mps 742 mmHg 84%
    11:00 +22°C° 0.3 mm 6 mps 742 mmHg 79%
    12:00 +23°C° 0.3 mm 6 mps 742 mmHg 74%
    13:00 +23°C° 0.7 mm 6 mps 742 mmHg 75%
    14:00 +23°C° 0.7 mm 6 mps 741 mmHg 77%
    15:00 +23°C° 0.7 mm 5 mps 741 mmHg 78%
    16:00 +22°C° 1 mm 5 mps 741 mmHg 81%
    17:00 +22°C° 1 mm 4 mps 741 mmHg 83%
    18:00 +21°C° 1 mm 3 mps 741 mmHg 86%
    19:00 +20°C° 0.1 mm 3 mps 741 mmHg 88%
    20:00 +20°C° 0.1 mm 2 mps 741 mmHg 89%
    21:00 +20°C° 0.1 mm 1 mps 741 mmHg 91%
    22:00 +19°C° 0 mm 2 mps 741 mmHg 92%
    23:00 +18°C° 0 mm 3 mps 741 mmHg 93%

    27 July, Saturday

    Time Temperature Precipitation Wind Pressure Humidity
    00:00 +18°C° 0 mm 4 mps 740 mmHg 94%
    01:00 +18°C° 0 mm 4 mps 740 mmHg 95%
    02:00 +18°C° 0 mm 4 mps 740 mmHg 95%
    03:00 +17°C° 0 mm 4 mps 740 mmHg 95%
    04:00 +17°C° 0.1 mm 4 mps 740 mmHg 95%
    05:00 +17°C° 0.1 mm 3 mps 740 mmHg 95%
    06:00 +17°C° 0.1 mm 3 mps 740 mmHg 95%
    07:00 +18°C° 0.1 mm 4 mps 740 mmHg 93%
    08:00 +20°C° 0.1 mm 4 mps 740 mmHg 90%
    09:00 +21°C° 0.1 mm 4 mps 740 mmHg 88%
    10:00 +22°C° 0.5 mm 5 mps 740 mmHg 83%
    11:00 +23°C° 0.5 mm 6 mps 740 mmHg 79%
    12:00 +24°C° 0.5 mm 6 mps 740 mmHg 74%
    13:00 +24°C° 0.2 mm 6 mps 740 mmHg 73%
    14:00 +25°C° 0.2 mm 5 mps 739 mmHg 72%
    15:00 +25°C° 0.2 mm 5 mps 739 mmHg 70%
    16:00 +25°C° 0.2 mm 4 mps 739 mmHg 72%
    17:00 +25°C° 0.2 mm 4 mps 739 mmHg 75%
    18:00 +25°C° 0.2 mm 3 mps 738 mmHg 77%
    19:00 +22°C° 0.1 mm 3 mps 738 mmHg 80%
    20:00 +21°C° 0.1 mm 2 mps 738 mmHg 84%
    21:00 +20°C° 0.1 mm 2 mps 738 mmHg 88%
    22:00 +19°C° 0 mm 2 mps 738 mmHg 89%
    23:00 +19°C° 0 mm 2 mps 738 mmHg 90%

    28 July, Sunday

    Time Temperature Precipitation Wind Pressure Humidity
    00:00 +18°C° 0 mm 2 mps 738 mmHg 91%
    01:00 +18°C° 0 mm 2 mps 737 mmHg 92%
    02:00 +18°C° 0 mm 2 mps 737 mmHg 93%
    03:00 +17°C° 0 mm 2 mps 737 mmHg 94%
    04:00 +17°C° 0 mm 2 mps 737 mmHg 93%
    05:00 +17°C° 0 mm 2 mps 736 mmHg 93%
    06:00 +17°C° 0 mm 3 mps 736 mmHg 93%
    07:00 +18°C° 0.1 mm 4 mps 736 mmHg 92%
    08:00 +19°C° 0.1 mm 4 mps 736 mmHg 91%
    09:00 +19°C° 0.1 mm 5 mps 736 mmHg 90%
    10:00 +17°C° 0.1 mm 6 mps 736 mmHg 87%
    11:00 +17°C° 0.1 mm 7 mps 737 mmHg 84%
    12:00 +16°C° 0.1 mm 7 mps 737 mmHg 81%
    13:00 +16°C° 0 mm 7 mps 737 mmHg 77%
    14:00 +16°C° 0 mm 7 mps 737 mmHg 73%
    15:00 +16°C° 0 mm 7 mps 737 mmHg 69%
    16:00 +16°C° 0 mm 7 mps 738 mmHg 69%
    17:00 +15°C° 0 mm 7 mps 738 mmHg 70%
    18:00 +14°C° 0 mm 7 mps 738 mmHg 70%
    19:00 +13°C° 0 mm 6 mps 738 mmHg 69%
    20:00 +11°C° 0 mm 6 mps 739 mmHg 68%
    21:00 +10°C° 0 mm 5 mps 739 mmHg 67%
    22:00 +9°C° 0 mm 5 mps 739 mmHg 66%
    23:00 +10°C° 0 mm 4 mps 739 mmHg 66%
    Show more